星链-35226 (STARLINK-35226)

导读

STARLINK-35226是美国SpaceX星链互联网卫星星座的成员,于2025年9月5日由美国发射升空,属于星链项目低轨互联网组网部署批次。作为近地轨道通信卫星,它承担着为全球提供高速宽带互联网接入服务的任务,延续了星链星座批量部署的节奏,进一步扩充了美国低轨卫星通信网络的规模与覆盖能力。

Basic Information
目录编号:
65492
目录名称:
STARLINK-35226
国际标识:
2025-198A
轨道中心:
EARTH
卫星名称:
星链-35226
卫星全名:
星链-35226 (STARLINK-35226)
卫星状态:
在轨 (已飞行365 天)
发射日期:
2025-09-05 UTC
国别 :
美国 (US)
星等 :
--
Orbit Information
数据来源 国际轨道数据
星历时间: 2026-09-05T11:30:29+0800
6小时前
查看轨道信息
半长轴: 6840.813km
偏心率: 0.0001765
轨道倾角: 53.158°
近地点辐角 46.105°
升交点赤经 153.336°
平近点角 314.010°
近地点: 461.468km
远地点: 463.884km
周期: 93.847分钟
每日圈数: 15.344092
Detailed Information
固有亮度:
5
最大亮度:
2.5
卫星平台:
Starlink V1.0
覆盖范围:
全球
运营商:
太空探索技术公司
运营商所在国:
美国
制造商(研发单位):
太空探索技术公司
制造商所在国:
美国
使用方式:
暂无
Satellite Introduction
Starlink 计划是 SpaceX 推出的全球卫星互联网项目,通过发射低轨道卫星,为全球尤其是偏远地区提供高速、低延迟的互联网服务。自 2019 年起,Starlink 已部署数千颗卫星,旨在缩小全球数字鸿沟,推动互联网普及。该项目还为军事、航空等行业提供通信支持,带来广泛经济效益。
2D Orbit Map
3D Orbit Map
Orbit Altitude Analysis Chart
Orbit Inclination Analysis Chart
Orbit Comprehensive Analysis Chart
View Comprehensive Chart
Conjunction Data List
Event ID Objects TCA Miss Dist (km) Collision Risk Probability Collision Risk Index (CRI) Action
CDM_260906-042604-765506-549222
2026-09-06T
04:26:01+0000
2.238 km
极远距离
1.922001E-6 低风险 0.41
CDM_260906-205205-250106-549221
2026-09-06T
20:52:09+0000
2.400 km
极远距离
1.678679E-6 低风险 0.39
CDM_260907-090806-549206-925021
2026-09-07T
09:08:48+0000
2.332 km
极远距离
1.303658E-6 低风险 0.37
CDM_260907-113305-419106-549221
2026-09-07T
11:33:25+0000
2.584 km
极远距离
1.298613E-6 低风险 0.37
CDM_260905-210805-262006-549221
2026-09-05T
21:08:17+0000
2.825 km
极远距离
6.633844E-7 极低风险 0.31